STARLINK-1695, 46329

Orbit data source: Space-Track

STARLINK-1695, 46329 is a payload satellite owned by SpaceX/Seattle (US) in LEO that was launched on Thu, 03 Sep 2020 UTC via an FALCON 9 launch vehicle from the Air Force Eastern Test Range (AFETR). Payload-class satellites include a variety of spacecraft equipped with specific instruments for various scientific and technological missions. These include communications satellites like Starlink; space stations such as the ISS; scientific satellites like the Hubble; Earth observation satellites from companies like Planet Labs, Umbra, and HawkEye 360; GPS; miniature CubeSats for education and research; and military/defense satellites.

Loading next visibility...
Identifier
46329, 2020-062E
Orbit
LEO
Country
Flag of USUS
Related business
Manufacturer
SpaceX/Seattle
Mission
Operational Commercial Communications
Bus & Motor
STARLINK, Unknown motor
Mass
260 kg wet, ~248 kg dry
Launch date (UTC)
2020-09-03 (5 years ago)
Launch vehicle
FALCON 9
Launch site
Air Force Eastern Test Range (AFETR)
Object type
Payload
Rocket body
Debris
Shape & HBR
Box + 1 Pan, 10.1 m
Radar Cross Section
13.562 m², Large (>1 m²)

Expand to show TLE details & history
Last TLE update: 7 hours ago

TLE from 7 hours ago
0 STARLINK-1695
1 46329U 20062E   25306.43225682  .00009894  00000-0  68232-3 0  9996
2 46329  53.0545 207.8997 0001813  99.5885 260.5309 15.06391898285401
Epoch: 2025-11-02T10:22Z
TLE epoch observation values (Epoch: 2025-11-02T10:22:26.989Z)
Latitude
-0°
Longitude
10.33918°
Altitude
548.322 km
Speed
7.589 km/s
True Right ascension
13h 51m 35s
True Declination
0° 00' 00"
Sunlit
Object was in daylight at epoch
Visualization orbit readout
Latitude
Unknown
Longitude
Unknown
Altitude
Unknown
Speed
Unknown
Apparent Right ascension
Unknown
Apparent Declination
Unknown
Sunlit
N/A
Visualization observer readout
Local Sidereal Time
12:42:38
Azimuth
Unknown
Elevation
Unknown
Doppler factor
Unknown
Orbital elements
Apogee altitude
548.763 km
Perigee altitude
546.251 km
Semi-major axis
6,925.644 km
Eccentricity
0.00018
Inclination
53.0545°
RAAN
207.8997°
Arg. of periapsis
99.5885°
True anomaly
260.51041°
Mean anomaly
260.5309°
Eccentric anomaly
260.52065°
Mean motion
3.76576 °/min
Orbital period
95.6 mins
BSTAR
0.00068232
Loading maneuver chart data...
Computing Atmospheric mass density...
Loading historical data...
Loading historical data...
Loading historical data...
Loading historical data...
Loading historical data...
Loading historical data...
Loading historical data...

Documentation

Showing up to 5 results
|